Miscellaneous Local Product
Issued by NWS North Platte, NE

Home | Current Version | Previous Version | Graphics & Text | Print | Product List | Glossary On
Versions: 1 2 3 4 5 6 7 8 9 10 11 12 13 14 15 16 17 18 19 20 21 22 23 24 25 26 27 28 29 30 31 32 33 34 35 36 37 38 39 40 41 42 43 44 45 46 47 48 49 50
027
AXUS43 KLBF 271310
MISLBF


WESTERN AND NORTH CENTRAL NEBRASKA HOURLY WEATHER ROUNDUP
NATIONAL WEATHER SERVICE NORTH PLATTE NE
800 AM CDT TUE SEP 27 2016

NOTE: "FAIR" INDICATES FEW OR NO CLOUDS BELOW 12,000 FEET WITH NO
SIGNIFICANT WEATHER AND/OR OBSTRUCTIONS TO VISIBILITY.

NOTE: STATIONS NOT REPORTING VARIABLES SUCH AS SKY/WEATHER OR
PRESSURE ARE PROVIDED BY RAWS AND APRS NETWORKS AND ARE NOT UNDER
NATIONAL WEATHER SERVICE QUALITY CONTROL.

...OBSERVATIONS IN AND NEAR THE EASTERN PANHANDLE OF NEBRASKA...

CITY           SKY/WX    TMP DP  RH WIND       PRES   REMARKS
PINE RIDGE     CLOUDY    33  32  96 CALM      30.12F
CHADRON        CLEAR     40  38  93 SW5       30.13F
ALLIANCE       CLOUDY    35  34  96 SW3       30.16F
SIDNEY         CLOUDY    40  37  89 NW7       30.19F
CRESCENT LAKE    N/A     44  41  89 CALM        N/A
$$

...OBSERVATIONS IN NORTHERN NEBRASKA AND FAR SOUTHERN SOUTH DAKOTA...

CITY           SKY/WX    TMP DP  RH WIND       PRES   REMARKS
WINNER         FAIR      46  39  76 SW7       30.06F
VALENTINE      CLEAR     40  36  86 W8        30.10F WCI  34
THEDFORD       CLEAR     42  40  91 W3        30.14S
AINSWORTH      CLEAR     44  40  88 W6        30.10S
O`NEILL        CLEAR     45  40  84 W3        30.08S
ORD            CLEAR     40  37  89 CALM      30.09S
BROKEN BOW     CLEAR     41  39  93 CALM      30.10F
VALENTINE NWR    N/A     45  39  80 CALM        N/A
BUTTE            N/A     46  39  77 SW5         N/A
HALSEY           N/A     45  39  80 W3          N/A
EWING            N/A     42  40  93 CALM        N/A
$$

...OBSERVATIONS IN SOUTHWEST NEBRASKA AND FAR NORTHEAST COLORADO...

CITY           SKY/WX    TMP DP  RH WIND       PRES   REMARKS
WRAY           FAIR      41  36  81 SW6       30.19R
HOLYOKE        FAIR      46  37  71 W7        30.18S
IMPERIAL       CLEAR     47  39  74 NW5       30.17S
OGALLALA       CLEAR     40  38  95 W3        30.17S
NORTH PLATTE   CLOUDY    37  35  92 NW3       30.15S
MCCOOK         CLEAR     44  41  89 W7        30.13S
LEXINGTON      CLEAR     43  40  89 W6        30.12S
STAPLETON        N/A     45  39  80 CALM        N/A
GOTHENBURG       N/A     44  38  79 W3          N/A
CALLAWAY         N/A     45  41  87 NW7         N/A
$$

...OBSERVATIONS IN CENTRAL LINCOLN COUNTY AREA...

CITY           SKY/WX    TMP DP  RH WIND       PRES   REMARKS
N.P. AIRPORT   CLOUDY    37  35  92 NW3       30.15S
N.P. DOWNTOWN    N/A     44  40  86 CALM        N/A
N.P. SOUTHEAST   N/A     45  40  82 CALM        N/A
N.P. HILLCREST   N/A     43  40  89 CALM        N/A
$$

...SOME OBSERVATIONS FROM AROUND THE REGION...

CITY           SKY/WX    TMP DP  RH WIND       PRES   REMARKS
DENVER         CLOUDY    49  30  48 SW12      30.25S
LARAMIE        CLOUDY    33  30  88 S7        30.35S WCI  27
CHEYENNE       CLOUDY    42  35  76 W10       30.27S
SCOTTSBLUFF    CLOUDY    39  37  92 NW5       30.18S
RAPID CITY     CLEAR     45  39  79 W6        30.08F
BISMARCK       CLEAR     37  35  92 CALM      30.03S
PIERRE         CLEAR     43  38  82 W5        30.03R
SIOUX FALLS    CLEAR     46  38  73 W6        30.01S
OMAHA          CLEAR     52  46  80 CALM      30.04S
GRAND ISLAND   CLEAR     47  42  83 NW6       30.08S
KANSAS CITY    PTCLDY    53  46  77 SW7       30.05S
WICHITA        CLEAR     52  48  86 S7        30.10F
OKLAHOMA CITY  PTCLDY    51  48  89 CALM      30.16R
DALLAS         MOCLDY    64  55  72 N8        30.12R
AMARILLO       PTCLDY    52  38  58 W5        30.24S
DODGE CITY     CLEAR     53  38  56 W9        30.14S
HAYS           CLEAR     48  36  61 NW8       30.10S
GOODLAND       CLEAR     47  39  74 W8        30.17S
$$




USA.gov is the U.S. government's official web portal to all federal, state and local government web resources and services.